[[{"header":{"parameterUnit":"m.s-1","parameterCategory":1,"la1":30.2991,"la2":30.254,"lo1":-89.0895,"lo2":-89.0444,"dy":0.0017,"dx":0.0017,"nx":28,"ny":28,"refTime":"2023-03-19T21:00:00:Z","depth":0,"parameterNumber":2,"parameterNumberName":"U-component_of_WINDS"},"data":[0,0,0,0,0,0,0,0,0,0,0,0,0,0,0,0,0,0,0,0,0,0,0,0,0,0,0,0,0,0,0,0,0,0,0,0,0,0,0,0,0,0,0,0,0,0,0,0,0,0,0,0,0,0,0,0,0,0,-0.5082,-0.5082,0,-0.5025,-0.5024,-0.5023,-0.5015,-0.5015,-0.5016,-0.5016,-0.4954,-0.4952,-0.495,0,0,0,0,0,0,0,0,0,0,0,0,0,-0.5182,-0.518,-0.5082,-0.5082,-0.5081,-0.5025,-0.5024,-0.5023,-0.5015,-0.5015,-0.5016,-0.5017,-0.4955,-0.4952,-0.4949,0,0,0,0,0,0,0,0,0,0,0,0,0,-0.5133,-0.5179,-0.5082,-0.507,-0.5068,-0.5025,-0.5024,-0.5023,-0.5014,-0.5015,-0.5016,-0.5017,-0.4955,-0.4952,-0.4949,-0.4913,0,0,-0.4939,-0.4938,0,0,0,0,0,0,0,0,-0.5135,-0.5129,-0.5073,-0.5071,-0.5069,-0.5028,-0.5036,-0.4986,-0.5014,-0.5035,-0.5016,-0.5017,-0.4978,-0.4973,-0.496,-0.491,-0.4907,-0.4939,-0.4937,-0.4935,-0.4935,0,0,0,0,0,0,0,-0.5139,-0.5131,-0.5059,-0.5072,-0.5069,-0.5066,-0.506,-0.5026,-0.5002,-0.5033,-0.5032,-0.5026,-0.4977,-0.4963,-0.4958,-0.4906,-0.4939,-0.4936,-0.4934,-0.4933,-0.4823,-0.4822,0,0,0,0,0,0,-0.5145,-0.5134,-0.5061,-0.5058,-0.5105,-0.5064,-0.5057,-0.504,-0.5003,-0.4998,-0.5025,-0.5026,-0.4968,-0.4962,-0.4956,-0.4911,-0.4936,-0.4932,-0.4931,-0.4824,-0.4823,-0.4822,0,0,0,0,0,0,-0.5147,-0.5139,-0.5064,-0.5096,-0.5086,-0.5061,-0.5042,-0.5038,-0.5025,-0.4997,-0.4992,-0.5016,-0.4969,-0.4961,-0.4924,-0.4909,-0.4931,-0.4928,-0.4825,-0.4824,-0.4823,-0.4821,0,0,0,0,0,0,-0.515,-0.5139,-0.5126,-0.5096,-0.5084,-0.5033,-0.5041,-0.5037,-0.502,-0.502,-0.4987,-0.4982,-0.4969,-0.4929,-0.4921,-0.4905,-0.4926,-0.4827,-0.4825,-0.4823,-0.4822,-0.482,-0.4817,0,0,0,0,0,-0.5154,-0.5128,-0.5126,-0.5117,-0.5068,-0.5033,-0.5026,-0.5012,-0.5019,-0.5005,-0.4986,-0.4983,-0.4912,-0.4925,-0.4916,-0.4899,-0.4827,-0.4825,-0.4823,-0.4823,-0.482,-0.4817,0,0,0,0,0,0,-0.5156,-0.5123,-0.5121,-0.5084,-0.5061,-0.5031,-0.5013,-0.5009,-0.4983,-0.4984,-0.4967,-0.4959,-0.4923,-0.4907,-0.4922,-0.4861,-0.487,-0.4866,-0.4873,-0.487,-0.4868,-0.4872,-0.4923,0,0,0,0,0,-0.5153,-0.5128,-0.51,-0.507,-0.5059,-0.5038,-0.5022,-0.5014,-0.4989,-0.4979,-0.4958,-0.4933,-0.4905,-0.4886,-0.4859,-0.482,-0.4812,-0.4803,-0.4801,-0.4799,-0.4796,-0.4773,-0.4769,-0.4815,-0.4815,-0.4815,0,0,-0.5145,-0.5124,-0.5109,-0.507,-0.5052,-0.5025,-0.503,-0.5002,-0.4982,-0.4974,-0.4938,-0.4922,-0.4893,-0.4855,-0.4837,-0.484,-0.4781,-0.4796,-0.4795,-0.4793,-0.477,-0.4766,-0.4762,-0.4813,-0.4814,-0.4814,0,0,-0.5117,-0.5099,-0.5072,-0.5053,-0.5025,-0.5011,-0.5005,-0.4975,-0.4964,-0.4928,-0.4922,-0.4897,-0.4849,-0.4828,-0.4812,-0.4776,-0.4771,-0.4767,-0.4754,-0.4732,-0.4729,-0.4726,-0.4712,-0.4708,-0.4764,-0.4764,-0.4764,0,-0.511,-0.5072,-0.5059,-0.5031,-0.5014,-0.5006,-0.4978,-0.496,-0.4924,-0.4912,-0.4916,-0.4856,-0.4836,-0.4792,-0.4784,-0.477,-0.4762,-0.4771,-0.4731,-0.4727,-0.4724,-0.4711,-0.4706,-0.4763,-0.4763,-0.4763,-0.4763,0,-0.5065,-0.5038,-0.502,-0.4986,-0.4967,-0.4939,-0.492,-0.4902,-0.4895,-0.488,-0.4843,-0.4819,-0.4786,-0.4775,-0.4767,-0.473,-0.4733,-0.4734,-0.4743,-0.4719,-0.4707,-0.4702,-0.4763,-0.4763,-0.4763,-0.4763,0,0,-0.5037,-0.4997,-0.499,-0.4975,-0.4943,-0.4921,-0.4893,-0.4862,-0.4846,-0.4821,-0.4796,-0.4756,-0.4757,-0.4738,-0.4727,-0.4708,-0.4681,-0.4712,-0.4711,-0.4706,-0.4637,-0.4637,-0.4631,-0.4678,-0.4677,-0.4676,-0.464,0,-0.5005,-0.4956,-0.4943,-0.49,-0.4875,-0.4867,-0.4842,-0.4819,-0.4804,-0.4779,-0.4763,-0.4734,-0.4738,-0.4726,-0.4707,-0.4688,-0.4667,-0.4691,-0.4653,-0.4652,-0.4661,-0.4625,-0.4624,-0.4591,-0.4635,-0.4634,-0.4633,0,-0.4962,-0.4937,-0.4892,-0.4864,-0.4852,-0.483,-0.4801,-0.4778,-0.4751,-0.4741,-0.472,-0.4712,-0.468,-0.469,-0.4646,-0.4663,-0.4647,-0.4635,-0.4634,-0.4629,-0.4641,-0.4619,-0.458,-0.4575,-0.4626,-0.4626,-0.4627,0,-0.4946,-0.4901,-0.4869,-0.4855,-0.4821,-0.4806,-0.479,-0.4765,-0.4747,-0.472,-0.4708,-0.4678,-0.4662,-0.4638,-0.4621,-0.463,-0.4578,-0.4587,-0.4569,-0.4569,-0.4558,-0.4559,-0.4516,-0.4548,-0.4548,-0.4548,-0.4548,0,-0.4912,-0.4884,-0.4861,-0.4841,-0.4809,-0.4794,-0.4763,-0.4747,-0.4725,-0.47,-0.4691,-0.4668,-0.4648,-0.4621,-0.4608,-0.4573,-0.4566,-0.4556,-0.4553,-0.4557,-0.4558,-0.4546,-0.4548,-0.4547,-0.4547,-0.4547,-0.4548,0,-0.4889,-0.4872,-0.4836,-0.4806,-0.4798,-0.4776,-0.475,-0.473,-0.4715,-0.4684,-0.4676,-0.4652,-0.4621,-0.4602,-0.4562,-0.4553,-0.4514,-0.4512,-0.4524,-0.4522,-0.4505,-0.4507,-0.4452,-0.4444,-0.4482,-0.4482,-0.4481,0,-0.4868,-0.4847,-0.4815,-0.4799,-0.4784,-0.4758,-0.474,-0.4723,-0.4704,-0.4672,-0.4655,-0.4624,-0.4598,-0.4548,-0.4526,-0.4496,-0.4492,-0.4475,-0.4488,-0.4492,-0.4492,-0.4493,-0.449,-0.4473,-0.4473,-0.4473,-0.4472,0,-0.4833,-0.4826,-0.4801,-0.4772,-0.4751,-0.4728,-0.4704,-0.4691,-0.4671,-0.465,-0.4619,-0.4598,-0.4558,-0.4527,-0.4494,-0.4477,-0.4471,-0.4469,-0.4463,-0.4467,-0.4474,-0.4469,-0.4518,-0.447,-0.447,-0.447,-0.447,-0.4471,-0.481,-0.4791,-0.4766,-0.4738,-0.4719,-0.4697,-0.4676,-0.4659,-0.4633,-0.46,-0.4591,-0.4558,-0.4531,-0.4487,-0.4469,-0.4442,-0.4444,-0.4436,-0.4434,-0.4432,-0.4431,-0.4479,-0.4436,-0.4436,-0.4436,-0.4436,-0.4436,0,-0.4774,-0.4758,-0.4732,-0.47,-0.4678,-0.4676,-0.4649,-0.4631,-0.4602,-0.4578,-0.4553,-0.4516,-0.4485,-0.4461,-0.4429,-0.4412,-0.4409,-0.4405,-0.4405,-0.4401,-0.4431,-0.4439,-0.4408,-0.4408,-0.4408,-0.4408,-0.4408,-0.4408,-0.4753,-0.472,-0.471,-0.4667,-0.465,-0.4619,-0.4604,-0.4584,-0.4564,-0.4524,-0.4499,-0.4484,-0.446,-0.4426,-0.4397,-0.4391,-0.4379,-0.4375,-0.4368,-0.4396,-0.4399,-0.4402,-0.441,-0.4373,-0.4373,-0.4341,-0.4341,-0.4341]},{"header":{"parameterUnit":"m.s-1","parameterCategory":1,"la1":30.2991,"la2":30.254,"lo1":-89.0895,"lo2":-89.0444,"dy":0.0017,"dx":0.0017,"nx":28,"ny":28,"refTime":"2023-03-19T21:00:00:Z","depth":0,"parameterNumber":3,"parameterNumberName":"V-component_of_WINDS"},"data":[0,0,0,0,0,0,0,0,0,0,0,0,0,0,0,0,0,0,0,0,0,0,0,0,0,0,0,0,0,0,0,0,0,0,0,0,0,0,0,0,0,0,0,0,0,0,0,0,0,0,0,0,0,0,0,0,0,0,-2.1419,-2.142,0,-2.1522,-2.1523,-2.1525,-2.1575,-2.1575,-2.1575,-2.1575,-2.168,-2.1683,-2.1685,0,0,0,0,0,0,0,0,0,0,0,0,0,-2.1267,-2.1269,-2.1419,-2.142,-2.1422,-2.1522,-2.1524,-2.1525,-2.1575,-2.1575,-2.1575,-2.1575,-2.1679,-2.1682,-2.1686,0,0,0,0,0,0,0,0,0,0,0,0,0,-2.1348,-2.127,-2.1419,-2.1459,-2.1464,-2.1522,-2.1524,-2.1525,-2.1575,-2.1575,-2.1575,-2.1575,-2.1678,-2.1682,-2.1686,-2.1712,0,0,-2.1699,-2.1701,0,0,0,0,0,0,0,0,-2.1343,-2.1353,-2.1452,-2.1456,-2.1462,-2.1536,-2.1508,-2.1588,-2.1575,-2.1533,-2.1575,-2.1575,-2.1632,-2.164,-2.1659,-2.1717,-2.1721,-2.1699,-2.1702,-2.1703,-2.1705,0,0,0,0,0,0,0,-2.1337,-2.1349,-2.146,-2.1453,-2.1459,-2.1472,-2.1484,-2.1523,-2.1581,-2.1537,-2.1541,-2.1552,-2.1635,-2.1655,-2.1662,-2.1723,-2.1699,-2.1703,-2.1705,-2.1707,-2.181,-2.181,0,0,0,0,0,0,-2.1325,-2.1344,-2.1457,-2.1463,-2.1401,-2.1475,-2.1488,-2.1512,-2.1581,-2.1591,-2.1552,-2.1554,-2.1648,-2.1657,-2.1666,-2.1703,-2.1703,-2.1707,-2.171,-2.181,-2.181,-2.181,0,0,0,0,0,0,-2.1322,-2.1335,-2.1453,-2.1405,-2.1421,-2.1478,-2.1504,-2.1514,-2.1535,-2.1592,-2.1603,-2.1562,-2.1648,-2.166,-2.1701,-2.1707,-2.1709,-2.1713,-2.1809,-2.181,-2.181,-2.1775,0,0,0,0,0,0,-2.1317,-2.1333,-2.1343,-2.1405,-2.1423,-2.1485,-2.1505,-2.1516,-2.1542,-2.1546,-2.1605,-2.1615,-2.1649,-2.1694,-2.1705,-2.1713,-2.1716,-2.1809,-2.1809,-2.181,-2.1776,-2.1774,-2.1773,0,0,0,0,0,-2.1312,-2.1328,-2.1343,-2.1357,-2.1437,-2.1485,-2.1496,-2.1536,-2.1542,-2.1553,-2.1591,-2.1613,-2.1704,-2.1698,-2.171,-2.172,-2.1809,-2.1809,-2.181,-2.1777,-2.1775,-2.1773,0,0,0,0,0,0,-2.1265,-2.1337,-2.1355,-2.1392,-2.1432,-2.1494,-2.1509,-2.1532,-2.1571,-2.1573,-2.162,-2.1633,-2.167,-2.1699,-2.169,-2.175,-2.1759,-2.1762,-2.173,-2.1728,-2.1726,-2.1719,-2.172,0,0,0,0,0,-2.1259,-2.1293,-2.1354,-2.1381,-2.1401,-2.1451,-2.1474,-2.1501,-2.1545,-2.1562,-2.1602,-2.1644,-2.1683,-2.1707,-2.1745,-2.178,-2.1795,-2.1793,-2.1791,-2.179,-2.1792,-2.1816,-2.1816,-2.1812,-2.1812,-2.1812,0,0,-2.1248,-2.1291,-2.1309,-2.1373,-2.1408,-2.1442,-2.1465,-2.15,-2.1526,-2.1567,-2.1609,-2.164,-2.169,-2.1729,-2.1748,-2.1754,-2.1797,-2.1791,-2.1789,-2.1792,-2.1816,-2.1817,-2.1817,-2.1812,-2.1812,-2.1812,0,0,-2.1244,-2.128,-2.1308,-2.1342,-2.1395,-2.1429,-2.1435,-2.1494,-2.1517,-2.156,-2.1592,-2.1624,-2.1689,-2.1724,-2.175,-2.1762,-2.1785,-2.1773,-2.1765,-2.1787,-2.1788,-2.1788,-2.1795,-2.1796,-2.1775,-2.1775,-2.1775,0,-2.1223,-2.1276,-2.1319,-2.1353,-2.1381,-2.142,-2.145,-2.1481,-2.1543,-2.1562,-2.1568,-2.1652,-2.1688,-2.1737,-2.174,-2.1759,-2.1769,-2.1767,-2.1784,-2.1785,-2.1787,-2.1793,-2.1795,-2.1774,-2.1774,-2.1774,-2.1774,0,-2.1248,-2.1285,-2.1301,-2.1362,-2.1391,-2.1422,-2.147,-2.1495,-2.152,-2.1554,-2.1598,-2.1643,-2.1693,-2.1706,-2.173,-2.1759,-2.1762,-2.1775,-2.1786,-2.1785,-2.1792,-2.1795,-2.1771,-2.1772,-2.1772,-2.1773,0,0,-2.1217,-2.1303,-2.1308,-2.1338,-2.14,-2.1429,-2.1463,-2.1512,-2.1534,-2.1575,-2.1606,-2.1661,-2.1675,-2.1705,-2.1733,-2.1753,-2.1763,-2.1765,-2.1766,-2.1764,-2.18,-2.179,-2.1792,-2.1778,-2.1778,-2.1779,-2.1796,0,-2.1224,-2.1287,-2.1328,-2.1375,-2.141,-2.145,-2.1479,-2.1521,-2.1554,-2.1589,-2.1625,-2.1664,-2.1678,-2.1697,-2.1718,-2.1757,-2.1771,-2.1756,-2.1808,-2.1809,-2.1795,-2.1796,-2.1785,-2.1799,-2.1799,-2.18,-2.18,0,-2.124,-2.1282,-2.1333,-2.1394,-2.1411,-2.1437,-2.1487,-2.1519,-2.1568,-2.1591,-2.1625,-2.1655,-2.1693,-2.17,-2.1754,-2.1744,-2.1767,-2.179,-2.1791,-2.1799,-2.1805,-2.1804,-2.1805,-2.1807,-2.1804,-2.1804,-2.1804,0,-2.1215,-2.1285,-2.1325,-2.1348,-2.142,-2.1438,-2.1468,-2.1517,-2.1545,-2.1588,-2.1607,-2.1654,-2.168,-2.1716,-2.1758,-2.1759,-2.1809,-2.1819,-2.183,-2.1829,-2.184,-2.1839,-2.1845,-2.1852,-2.1852,-2.1852,-2.1852,0,-2.1218,-2.1248,-2.1315,-2.134,-2.1376,-2.1422,-2.1456,-2.149,-2.1533,-2.1566,-2.1602,-2.1632,-2.1686,-2.1722,-2.1755,-2.1797,-2.1808,-2.1828,-2.1837,-2.1826,-2.1823,-2.1842,-2.1843,-2.1853,-2.1853,-2.1853,-2.1852,0,-2.1196,-2.1242,-2.1289,-2.1354,-2.1371,-2.1394,-2.145,-2.1476,-2.1511,-2.1552,-2.1565,-2.162,-2.1666,-2.1711,-2.1772,-2.1794,-2.1836,-2.1846,-2.1819,-2.1824,-2.1834,-2.1833,-2.1854,-2.186,-2.1861,-2.1861,-2.1861,0,-2.1196,-2.1221,-2.1289,-2.1314,-2.1344,-2.1383,-2.1413,-2.146,-2.1489,-2.1548,-2.1567,-2.1616,-2.1657,-2.1728,-2.1774,-2.1822,-2.1835,-2.1839,-2.1842,-2.1831,-2.1837,-2.1836,-2.1839,-2.1838,-2.1837,-2.1837,-2.1837,0,-2.1192,-2.1214,-2.1255,-2.1305,-2.1339,-2.1381,-2.1423,-2.1441,-2.1497,-2.1528,-2.1576,-2.1608,-2.1671,-2.172,-2.1773,-2.1805,-2.1831,-2.1836,-2.1841,-2.1831,-2.1815,-2.1826,-2.1817,-2.1835,-2.1835,-2.1835,-2.1836,-2.1836,-2.1182,-2.1207,-2.126,-2.1305,-2.1342,-2.1382,-2.141,-2.145,-2.1491,-2.1547,-2.1572,-2.162,-2.1671,-2.1745,-2.1777,-2.1816,-2.1823,-2.183,-2.1832,-2.1834,-2.1832,-2.1808,-2.1826,-2.1826,-2.1826,-2.1826,-2.1826,0,-2.1182,-2.1218,-2.1259,-2.1319,-2.1355,-2.1377,-2.1425,-2.1454,-2.1497,-2.1542,-2.1583,-2.1638,-2.1686,-2.1736,-2.1787,-2.1809,-2.1822,-2.1821,-2.182,-2.1828,-2.1822,-2.1814,-2.1809,-2.1809,-2.1809,-2.1809,-2.1809,-2.1809,-2.1186,-2.1229,-2.1258,-2.1321,-2.1358,-2.1406,-2.1432,-2.1469,-2.1506,-2.1567,-2.1607,-2.164,-2.1688,-2.1743,-2.1788,-2.1802,-2.182,-2.1815,-2.1832,-2.1827,-2.1828,-2.1829,-2.1821,-2.1818,-2.1818,-2.1835,-2.1835,-2.1835]}]]